Date String (YYYY-MM-DD hh:mm:ss) UTC,Instrument flags,Ambient pressure (hPa),Sample flow (lpm),Bypass flow (lpm),Sample temperature (°C),Ambient temperature (°C),ASC tube jacket temperature (°C),LED temperature (°C),Box temperature (°C),Sample RH (%),Span deviation,Mass concentration (μg/m³),Mass concentration (μg/m³),Mass concentration (μg/m³)
DateTimeUTC,F1_M11,P_M11,Q1_M11,Q2_M11,T1_M11,T2_M11,T3_M11,T4_M11,T5_M11,U1_M11,ZSPAN_M11,X0_M11,X2_M11,X1_M11
2022-11-27 10:00:00,,0822.8,5.00,0.00,25.4,23.9,00.0,34.3,27.2,17.7,0000.0,0004.54,0003.02,0002.61
2022-11-27 10:01:00,,0822.8,4.99,0.00,25.4,23.9,00.0,34.3,27.3,17.8,0000.0,0004.51,0002.99,0002.58
2022-11-27 10:02:00,,0822.8,5.00,0.00,25.3,23.9,00.0,34.3,27.3,17.8,0000.0,0004.78,0003.00,0002.58
2022-11-27 10:03:00,,0822.8,4.99,0.00,25.3,23.9,00.0,34.3,27.2,17.8,0000.0,0005.66,0003.01,0002.56
2022-11-27 10:04:00,,0822.8,5.02,0.00,25.3,23.9,00.0,34.3,27.2,17.8,0000.0,0005.61,0002.98,0002.54
2022-11-27 10:05:00,,0822.8,5.01,0.00,25.3,23.9,00.0,34.3,27.2,17.8,0000.0,0005.48,0002.94,0002.52
2022-11-27 10:06:00,,0822.8,5.00,0.00,25.3,23.8,00.0,34.3,27.2,17.8,0000.0,0005.39,0002.92,0002.51
2022-11-27 10:07:00,,0822.8,5.00,0.00,25.3,23.8,00.0,34.3,27.2,17.8,0000.0,0005.38,0002.90,0002.51
2022-11-27 10:08:00,,0822.8,5.00,0.00,25.3,23.8,00.0,34.3,27.2,17.8,0000.0,0005.41,0002.89,0002.49
2022-11-27 10:09:00,,0822.8,5.00,0.00,25.3,23.8,00.0,34.3,27.2,17.8,0000.0,0005.17,0002.82,0002.47
2022-11-27 10:10:00,,0822.8,5.00,0.00,25.3,23.8,00.0,34.3,27.2,17.8,0000.0,0005.11,0002.81,0002.46
2022-11-27 10:11:00,,0822.8,5.00,0.00,25.3,23.8,00.0,34.3,27.2,17.8,0000.0,0005.14,0002.79,0002.47
2022-11-27 10:12:00,,0822.8,5.00,0.00,25.3,23.8,00.0,34.3,27.2,17.8,0000.0,0005.23,0002.82,0002.49
2022-11-27 10:13:00,,0822.8,5.00,0.00,25.3,23.8,00.0,34.3,27.1,17.8,0000.0,0004.91,0002.78,0002.49
2022-11-27 10:14:00,,0822.8,5.00,0.00,25.3,23.8,00.0,34.3,27.1,17.8,0000.0,0003.90,0002.79,0002.50
2022-11-27 10:15:00,,0822.8,5.00,0.00,25.3,23.8,00.0,34.3,27.2,17.8,0000.0,0003.87,0002.79,0002.51
2022-11-27 10:16:00,,0822.8,5.00,0.00,25.3,23.8,00.0,34.3,27.2,17.8,0000.0,0003.88,0002.80,0002.53
2022-11-27 10:17:00,,0822.8,4.99,0.00,25.3,23.8,00.0,34.3,27.1,17.8,0000.0,0003.86,0002.81,0002.55
2022-11-27 10:18:00,,0822.8,5.00,0.00,25.3,23.8,00.0,34.3,27.1,17.8,0000.0,0003.79,0002.80,0002.57
2022-11-27 10:19:00,,0822.8,4.99,0.00,25.3,23.8,00.0,34.2,27.1,17.8,0000.0,0003.75,0002.81,0002.60
2022-11-27 10:20:00,,0822.7,5.00,0.00,25.3,23.8,00.0,34.2,27.1,17.8,0000.0,0004.34,0002.87,0002.65
2022-11-27 10:21:00,,0822.7,5.02,0.00,25.3,23.8,00.0,34.2,27.1,17.8,0000.0,0005.51,0002.93,0002.68
2022-11-27 10:22:00,,0822.7,5.00,0.00,25.3,23.8,00.0,34.2,27.1,17.9,0000.0,0005.59,0002.99,0002.72
2022-11-27 10:23:00,,0822.7,4.99,0.00,25.3,23.8,00.0,34.2,27.1,17.9,0000.0,0005.45,0002.99,0002.75
2022-11-27 10:24:00,,0822.6,4.99,0.00,25.3,23.8,00.0,34.2,27.1,17.9,0000.0,0005.49,0003.05,0002.83
2022-11-27 10:25:00,,0822.7,5.00,0.00,25.3,23.8,00.0,34.2,27.1,17.9,0000.0,0005.51,0003.12,0002.92
2022-11-27 10:26:00,,0822.7,5.00,0.00,25.3,23.8,00.0,34.2,27.1,17.9,0000.0,0006.20,0003.22,0003.06
2022-11-27 10:27:00,,0822.6,5.00,0.00,25.3,23.8,00.0,34.2,27.1,17.9,0000.0,0006.48,0003.34,0003.18
2022-11-27 10:28:00,,0822.6,5.00,0.00,25.3,23.8,00.0,34.2,27.1,17.9,0000.0,0006.67,0003.44,0003.26
2022-11-27 10:29:00,,0822.6,5.01,0.00,25.2,23.7,00.0,34.2,27.1,17.9,0000.0,0007.11,0003.51,0003.33
2022-11-27 10:30:00,,0822.6,4.99,0.00,25.3,23.7,00.0,34.2,27.1,17.9,0000.0,0007.48,0003.53,0003.35
2022-11-27 10:31:00,,0822.6,4.99,0.00,25.2,23.7,00.0,34.2,27.1,17.9,0000.0,0007.40,0003.56,0003.37
2022-11-27 10:32:00,,0822.6,5.01,0.00,25.2,23.7,00.0,34.2,27.1,17.9,0000.0,0006.54,0003.62,0003.40
2022-11-27 10:33:00,,0822.6,5.01,0.00,25.2,23.7,00.0,34.2,27.1,17.9,0000.0,0006.64,0003.65,0003.43
2022-11-27 10:34:00,,0822.6,5.00,0.00,25.2,23.8,00.0,34.2,27.1,17.9,0000.0,0006.96,0003.70,0003.46
2022-11-27 10:35:00,,0822.6,4.99,0.00,25.2,23.8,00.0,34.2,27.1,17.9,0000.0,0007.09,0003.75,0003.48
2022-11-27 10:36:00,,0822.6,5.02,0.00,25.2,23.8,00.0,34.2,27.2,17.9,0000.0,0007.26,0003.78,0003.49
2022-11-27 10:37:00,,0822.6,4.99,0.00,25.2,23.7,00.0,34.2,27.1,17.9,0000.0,0006.70,0003.75,0003.47
2022-11-27 10:38:00,,0822.6,5.00,0.00,25.2,23.8,00.0,34.2,27.1,17.9,0000.0,0006.79,0003.70,0003.44
2022-11-27 10:39:00,,0822.6,5.00,0.00,25.2,23.7,00.0,34.2,27.1,17.9,0000.0,0006.81,0003.66,0003.39
2022-11-27 10:40:00,,0822.6,4.99,0.00,25.2,23.7,00.0,34.2,27.1,17.9,0000.0,0006.45,0003.63,0003.37
2022-11-27 10:41:00,,0822.6,5.00,0.00,25.2,23.7,00.0,34.2,27.1,18.0,0000.0,0006.14,0003.67,0003.38
2022-11-27 10:42:00,,0822.6,5.02,0.00,25.2,23.7,00.0,34.2,27.1,18.0,0000.0,0006.20,0003.68,0003.38
2022-11-27 10:43:00,,0822.6,5.00,0.00,25.2,23.7,00.0,34.2,27.1,18.0,0000.0,0005.87,0003.64,0003.36
2022-11-27 10:44:00,,0822.6,4.99,0.00,25.2,23.7,00.0,34.2,27.1,18.0,0000.0,0005.72,0003.64,0003.37
2022-11-27 10:45:00,,0822.7,4.99,0.00,25.2,23.7,00.0,34.1,27.1,18.0,0000.0,0005.51,0003.65,0003.39
2022-11-27 10:46:00,,0822.6,5.00,0.00,25.1,23.7,00.0,34.1,27.0,18.0,0000.0,0005.49,0003.63,0003.40
2022-11-27 10:47:00,,0822.6,5.02,0.00,25.1,23.7,00.0,34.1,27.0,18.0,0000.0,0005.46,0003.65,0003.41
2022-11-27 10:48:00,,0822.6,5.00,0.00,25.1,23.7,00.0,34.1,27.0,18.0,0000.0,0005.42,0003.63,0003.40
2022-11-27 10:49:00,,0822.6,5.00,0.00,25.1,23.7,00.0,34.1,27.0,18.1,0000.0,0005.19,0003.62,0003.40
2022-11-27 10:50:00,,0822.7,4.99,0.00,25.1,23.6,00.0,34.1,27.0,18.1,0000.0,0005.20,0003.62,0003.40
2022-11-27 10:51:00,,0822.6,5.01,0.00,25.1,23.6,00.0,34.1,26.9,18.1,0000.0,0005.37,0003.63,0003.41
2022-11-27 10:52:00,,0822.7,5.00,0.00,25.1,23.6,00.0,34.1,27.0,18.1,0000.0,0005.48,0003.64,0003.42
2022-11-27 10:53:00,,0822.6,5.00,0.00,25.1,23.6,00.0,34.1,27.0,18.1,0000.0,0005.39,0003.65,0003.44
2022-11-27 10:54:00,,0822.6,4.99,0.00,25.1,23.6,00.0,34.1,27.0,18.1,0000.0,0005.54,0003.71,0003.48
2022-11-27 10:55:00,,0822.6,4.99,0.00,25.1,23.6,00.0,34.1,27.0,18.1,0000.0,0005.65,0003.73,0003.50
2022-11-27 10:56:00,,0822.6,5.02,0.00,25.1,23.6,00.0,34.1,27.0,18.1,0000.0,0005.90,0003.76,0003.51
2022-11-27 10:57:00,,0822.6,5.00,0.00,25.1,23.6,00.0,34.1,27.0,18.1,0000.0,0006.06,0003.79,0003.52
2022-11-27 10:58:00,,0822.6,5.00,0.00,25.1,23.6,00.0,34.1,27.0,18.1,0000.0,0006.06,0003.77,0003.52
2022-11-27 10:59:00,,0822.6,4.99,0.00,25.1,23.6,00.0,34.1,27.0,18.1,0000.0,0006.14,0003.79,0003.54
